Other Public Products
Issued by NWS Grand Forks, ND

Home | Current Version | Previous Version | Text Only | Print | Product List | Glossary Off
Versions: 1 2 3 4 5 6 7 8 9 10 11 12 13 14 15 16 17 18 19 20 21 22 23 24 25 26 27 28 29 30 31 32 33 34 35 36 37 38 39 40 41 42 43 44 45 46 47 48 49 50

000
FPUS83 KFGF 190910
OPUFGF
PRAIRIE TO PINES WEATHER ROUNDUP
NATIONAL WEATHER SERVICE EASTERN NORTH DAKOTA/GRAND FORKS ND
300 AM CST MON FEB 19 2018

 **SATELLITE DATA USED TO AUGMENT SKY COVER AT AUTOMATED STATIONS**
 *****  WEATHER ACROSS EASTERN NORTH DAKOTA  *****

CITY           SKY/WX    TMP DP  RH WIND       PRES   REMARKS
GRAND FORKS    FAIR       4  -3  73 N20       30.18R WCI -17
GRND FORKS AFB FAIR       4  -6  62 N16       30.18R WCI -15
GRND FORKS NWS   N/A      3  -2  79 N9        30.15R WCI -11
BUXTON           N/A      5   2  84 N10         N/A  WCI -10
DEVILS LAKE    FAIR      -1  -6  79 N12       30.15S WCI -18
FARGO          FAIR       8   1  73 N22G35    30.07F WCI -12
WAHPETON ARPT  CLOUDY    10   3  72 N18G24    30.03S WCI  -8
$$

 *****  WEATHER ACROSS CENTRAL AND WESTERN NORTH DAKOTA  *****

CITY           SKY/WX    TMP DP  RH WIND       PRES   REMARKS
JAMESTOWN      MOCLDY     6  -1  73 N15       30.07F WCI -12
BISMARCK       FAIR       5  -8  55 N12       30.11S WCI -11
MINOT          FAIR      -5 -14  65 W12       30.15F WCI -23
MINOT AFB      FAIR     -14 -20  76 W9        30.15F WCI -33
GARRISON         N/A     -5 -12  72 N13       30.12S WCI -24
WILLISTON      MOCLDY   -14 -17  87 CALM      30.17S
DICKINSON      FAIR       2  -8  63 N5        30.06R WCI  -8
HETTINGER      CLOUDY     3  -2  79 N13       30.07R WCI -14
$$

 *****  OTHER OBSERVATIONS NORTHEAST NORTH DAKOTA  *****

CITY           SKY/WX    TMP DP  RH WIND       PRES   REMARKS
WALHALLA       FAIR       0  -8  71 N8        30.23R WCI -15
LANGDON        NOT AVBL
CAVALIER         N/A      0  -8  71 N12       30.23R WCI -18
GRAFTON        NOT AVBL
CANDO          FAIR      -4  -8  84 N9        30.17F WCI -20
FORT TOTTEN      N/A      0  -6  76 NE3       29.95S
ROLLA          FAIR      -8 -15  71 NW8       30.15S WCI -23
RUGBY          NOT AVBL
 ***** THE ABOVE OBSERVATIONS ARE NON NWS ARE NOT QUALITY
        CONTROLLED AND MAY MIS-REPORT RAIN FOR SNOW...
$$

 *****  OTHER OBSERVATIONS SOUTHEAST NORTH DAKOTA *****

CITY           SKY/WX    TMP DP  RH WIND       PRES   REMARKS
COOPERSTOWN    FAIR       5  -2  72 N18       30.10F WCI -15
VALLEY CITY    NOT AVBL
OAKES            N/A      7   0  72 N24G31    30.03S WCI -15
GWINNER          N/A      7   1  78 N25       30.03R WCI -15
SHEYENNE NWR     N/A      8   0  68 N14       29.95S WCI  -8
BUFFALO          N/A      6  -3  66 SE15        N/A  WCI -12
WYNDMERE       NOT AVBL
 ***** THE ABOVE OBSERVATIONS ARE NON NWS ARE NOT QUALITY
       CONTROLLED AND MAY MIS-REPORT RAIN FOR SNOW...
$$

  *****  WEATHER ACROSS NORTHERN MINNESOTA  *****

CITY           SKY/WX    TMP DP  RH WIND       PRES   REMARKS
FLAG ISLAND    FAIR       0  -8  71 N8        30.16R WCI -15
WARROAD        FAIR       0  -6  78 NW7       30.16R WCI -13
ROSEAU         NOT AVBL
HALLOCK        FAIR       0  -8  71 N12       30.20S WCI -18
THF RVR FALLS  FAIR       3  -5  69 N10       30.14R WCI -12
HALSTAD        NOT AVBL
FOSSTON        FAIR       1  -4  78 N10       30.08R WCI -14
BAUDETTE       FAIR       2  -3  80 N7        30.11R WCI -11
WASKISH        FAIR       3   0  85 N8        30.08S WCI -10
CROOKSTON      FAIR       5  -2  72 N10       30.17R WCI -10
$$
  *****  WEATHER ACROSS CENTRAL AND WEST MINNESOTA  *****

CITY           SKY/WX    TMP DP  RH WIND       PRES   REMARKS
BEMIDJI        FAIR       3  -1  83 N10       30.05R WCI -12
PARK RAPIDS    MOCLDY     7   1  76 N13G22    29.97S WCI  -9
WADENA         FAIR       9   3  78 N13G18    29.95F WCI  -7
DETROIT LAKES  FAIR      10   5  79 N7        30.02R WCI   0
MOORHEAD       FAIR       7   0  72 N21G28    30.07S WCI -13
FERGUS FALLS   FAIR       9   3  78 N13G18    30.01R WCI  -7
ELBOW LAKE     CLOUDY    12   6  78 N17       29.95S WCI  -5
MORRIS MN      CLOUDY    14   7  73 N20G29    29.90F WCI  -3
STAPLES        CLOUDY     9   3  78 N12       29.95S WCI  -6
WHEATON        MOCLDY    10   3  72 N18G26    30.00S WCI  -8
$$
  *****  WEATHER ELSEWHERE ACROSS MINNESOTA  *****

CITY           SKY/WX    TMP DP  RH WIND       PRES   REMARKS
DULUTH         FLURRIES  12   7  80 N9        29.93R WCI   0
INTRNTL FALLS  FAIR       4   0  83 N8        30.08R WCI  -9
ELY            FAIR       3   0  85 N5        29.99R WCI  -6
CLOQUET        CLOUDY    12   7  79 N10G22    29.93R WCI  -1
BRAINERD       CLOUDY    11   3  70 N17G24    29.95S WCI  -6
HIBBING        CLOUDY     4   0  83 N10       29.97R WCI -11
ALEXANDRIA     CLOUDY    12   7  80 N20       29.90F WCI  -6
SAINT CLOUD    LGT SNOW  17  12  80 N14G25    29.89R WCI   3
MINNEAPOLIS    CLOUDY    27  23  85 N21       29.79R WCI  13
$$

  *****  WEATHER ACROSS SOUTH DAKOTA  *****

CITY           SKY/WX    TMP DP  RH WIND       PRES   REMARKS
SIOUX FALLS    CLOUDY    17  12  80 N16G24    29.84R WCI   2
BROOKINGS      FLURRIES  12   7  80 N21G28    29.85R WCI  -7
WATERTOWN      CLOUDY    10   6  84 N20       29.86R WCI  -9
HURON          CLOUDY    12   6  77 N21       29.99R WCI  -7
SISSETON         N/A     10   4  76 N24G36    29.96  WCI -10
ABERDEEN       CLOUDY    10   4  76 N21G33    30.01R WCI  -9
MITCHELL       CLOUDY    14   8  77 N28       29.90F WCI  -6
PIERRE         LGT SNOW   8   5  87 N18       30.01R FOG     WCI -11
MOBRIDGE       FAIR       9   2  73 N16       30.00S WCI  -8
RAPID CITY     LGT SNOW   2  -2  83 N21       29.96F VSB 1   WCI -20
$$

  *****  SOME WEATHER IN NEARBY STATES *****

CITY           SKY/WX    TMP DP  RH WIND       PRES   REMARKS
GLASGOW MT     CLOUDY    -2  -8  76 N7        30.13S WCI -15
GREAT FALLS MT LGT SNOW  -3  -8  79 N5        30.01F WCI -13
CHEYENNE WY    LGT SNOW   5   3  91 N13       29.64S FOG     WCI -12
SCOTTSBLUFF NE LGT SNOW   9   3  77 N9        29.85R WCI  -4
OMAHA NE       LGT RAIN  32  31  96 N14       29.63F FOG     WCI  22
DES MOINES IA  DRIZZLE   45  34  65 SE10      29.67F
DAVENPORT IA   MOCLDY    42  34  73 S12       29.80S
CHICAGO IL     CLOUDY    40  34  79 S12       29.85F
EAU CLAIRE WI  FAIR      26  23  88 N3        29.75R
LA CROSSE WI   CLOUDY    38  30  73 S6        29.74S
$$

  *****  SOME NATIONAL WEATHER *****

CITY           SKY/WX    TMP DP  RH WIND       PRES   REMARKS
LA GUARDIA NY  MOCLDY    36  27  69 SE6       30.52F
RALEIGH NC     LGT RAIN  41  39  93 E8        30.43F FOG
ATLANTA GA     DRZL/FOG  59  59 100 SE8       30.27S VSB 1/2
NEW ORLEANS LA FAIR      66  66 100 SE6       30.12S
OKLAHOMA CITY  CLOUDY    64  59  83 S24G33    29.71F
ALBUQUERQUE NM MOCLDY    48  36  63 S9        29.77S
SALT LAKE CITY LGT SNOW  32  30  92 N10       29.46F VSB 1   WCI  24
LOS ANGELES CA FAIR      54  42  64 W17       29.84F
BOISE ID       FAIR      22  18  85 CALM      29.65R
SEATTLE WA     CLOUDY    31  18  58 N17       30.00R WCI  19
$$

*** WEATHER ACROSS MANITOBA...SASKATCHEWAN AND ONTARIO ***
                ***ONTARIO***

CITY           SKY/WX    TMP DP  RH WIND       PRES   REMARKS
GERALDTON      FLURRIES   3  -2  78 NE8       30.02R WCI -10
THUNDER BAY    CLOUDY     9   1  72 N6        30.03R WCI  -1
SIOUX LOOKOUT  CLOUDY    -8 -13  77 N2        30.12R
TORONTO        MOCLDY    30  27  86 SE3       30.11F
BIG TROUT LK   CLEAR    -38 -44  74 NW7       30.23S WCI -59
PICKLE LAKE    NOT AVBL
DRYDEN         MOCLDY    -6  -9  84 NE6       30.11R WCI -18
KENORA         CLEAR     -6 -11  77 N7        30.13R WCI -20
$$
                *** MANITOBA***

CITY           SKY/WX    TMP DP  RH WIND       PRES   REMARKS
BRANDON        CLEAR    -20 -26  76 NW5       30.23R WCI -33
DAUPHIN        CLEAR    -26 -33  68 W7        30.26R WCI -44
ISLAND LAKE    CLEAR    -38 -45  67 SE2       30.28R
PILOT MOUND      N/A     -8 -15  71 N7          N/A  WCI -22
THE PAS        CLEAR    -26 -31  75 S6        30.21F WCI -42
THOMPSON       CLEAR    -45 -53  66 CALM      30.21S
WINNIPEG       CLEAR     -9 -17  70 N3        30.27R
LYNN LAKE      CLEAR    -31 -38  68 SW7       30.04F WCI -50
CHURCHILL      CLEAR    -31 -42  56 W12G18    30.14R WCI -56
GILLAM         CLEAR    -35 -42  67 SW7       30.23R WCI -55
$$
                ***SASKATCHEWAN***

CITY           SKY/WX    TMP DP  RH WIND       PRES   REMARKS
ESTEVAN        PTCLDY   -15 -20  76 SW5       30.14F WCI -27
KINDERSLEY     CLEAR    -18 -22  83 SW8       30.11F WCI -37
LLOYDMINSTER   PTCLDY   -13 -17  84 W12       30.06F WCI -33
PRINCE ALBERT  CLEAR    -29 -35  75 CALM      30.16F
REGINA         PTCLDY   -15 -18  84 W3        30.17R
YORKTON        FLURRIES  -6  -9  84 E3        30.17R



USA.gov is the U.S. government's official web portal to all federal, state and local government web resources and services.